sat.trackr.live / text

‹ back to catalog

STARLINK-31941

NORAD 59866 · 2024-098J

PAYLOAD ACTIVE UNKNOWN

§ Identity

Operator
Country
US
Launch date
2024-05-24
Launch site
AFETR
Launch vehicle
Mass (kg)
RCS (m²)

Purposes: comms

External: N2YO · Heavens-Above · Gunter

§ Orbital elements

Epoch: 2026-05-25T02:29:26.199744Z

Period
94.27 min
Inclination
43.0019°
Eccentricity
0.0001171
Mean motion
15.27576237 rev/d
Perigee alt
482.3 km
Apogee alt
483.9 km
Semi-major
6,861.2 km
B*
4.0821e-5
RAAN
188.7059°
Arg perigee
276.9071°
Mean anomaly
83.1647°
Rev number
11,373

§ Raw data

STARLINK-319411 59866U 24098J   26145.10377546  .00000861  00000+0  40821-4 0  99912 59866  43.0019 188.7059 0001171 276.9071  83.1647 15.27576237113732

JSON: /api/v1/satellites/59866 · /tle

For live sub-satellite position, see the globe view (requires WebGL).

§ Visibility from observer

Set your observer location to see the next 7 days of passes ≥ 10°. The values pass through the URL so the page stays shareable.

No JS? Fill the form by hand. The geolocation button needs JavaScript.